Annette Island, AK

12:00 PM AKDT on March 25, 2017 (GMT -0800)
Annette Island

Weather History for PANT - December, 2012

Change the Weather History Date:

Wednesday, December 26, 2012

  Actual Average Record
Temperature  
Mean Temperature 29 °F 37 °F  
Max Temperature 35 °F 41 °F 53 °F (2009)
Min Temperature 23 °F 32 °F 9 °F (1955)
Degree Days  
Heating Degree Days 36 28  
Month to date heating degree days 781 721  
Since 1 July heating degree days 2911 2771  
Cooling Degree Days 0    
Month to date cooling degree days 0  
Year to date cooling degree days 7  
Moisture  
Dew Point 22 °F    
Average Humidity 0    
Maximum Humidity 0    
Minimum Humidity 0    
Precipitation  
Precipitation 0.00 in 0.33 in 2.83 in (1959)
Month to date precipitation 7.47 9.05  
Year to date precipitation 102.58 99.96  
Snow  
Snow 0.00 in 0.40 in 5.80 in (2008)
Month to date snowfall 10.9 6.6  
Since 1 July snowfall 10.9 10.2  
Snow Depth 2.00 in    
Sea Level Pressure  
Sea Level Pressure 29.85 in    
Wind  
Wind Speed 0 mph (NNE)    
Max Wind Speed 5 mph    
Max Gust Speed 7 mph    
Visibility 10 miles    
Events      
T = Trace of Precipitation, MM = Missing Value Source: NWS Daily Summary

Daily Weather History Graph

Daily Weather History Graph

Search for Another Location

Airport or City:

Trip Planner

Search our weather history database for the weather conditions in past years. The results will help you decide how hot, cold, wet, or windy it might be!

Date:

Astronomy

Dec. 26, 2012 Rise Set
Actual Time 8:11 AM AKST 3:23 PM AKST
Civil Twilight 7:25 AM AKST 4:08 PM AKST
Nautical Twilight 6:38 AM AKST 4:56 PM AKST
Astronomical Twilight 5:53 AM AKST 5:40 PM AKST
Moon 2:27 PM AKST (12/26) 6:35 AM AKST (12/26)
Length of Visible Light 8h 42m
Length of Day
7h 11m
Waxing Gibbous, 98% of the Moon is Illuminated
Dec 26
Waxing Gibbous
Dec 28
Full
Jan 4
Last Quarter
Jan 11
New
Jan 18
First Quarter

Hourly Weather History & Observations

Time (AKST) Temp. Windchill Dew Point Humidity Pressure Visibility Wind Dir Wind Speed Gust Speed Precip Events Conditions
12:53 AM 28.9 °F - 19.9 °F 69% 29.74 in 10.0 mi Calm Calm - N/A   Clear
1:53 AM 28.0 °F - 19.9 °F 72% 29.75 in 10.0 mi Calm Calm - N/A   Mostly Cloudy
3:53 AM 26.1 °F - 19.9 °F 78% 29.77 in 10.0 mi Calm Calm - N/A   Partly Cloudy
4:53 AM 23.0 °F - 19.9 °F 88% 29.78 in 10.0 mi Calm Calm - N/A   Mostly Cloudy
5:53 AM 26.1 °F - 19.0 °F 75% 29.79 in 10.0 mi Calm Calm - N/A   Overcast
6:53 AM 28.9 °F 25.2 °F 19.9 °F 69% 29.80 in 10.0 mi NNE 3.5 mph - N/A   Overcast
7:53 AM 30.0 °F - 19.0 °F 64% 29.81 in 10.0 mi Calm Calm - N/A   Overcast
8:53 AM 28.9 °F - 21.0 °F 72% 29.82 in 10.0 mi Calm Calm - N/A   Mostly Cloudy
9:53 AM 30.9 °F - 23.0 °F 72% 29.85 in 10.0 mi Calm Calm - N/A   Mostly Cloudy
10:53 AM 33.1 °F - 23.0 °F 66% 29.85 in 10.0 mi Calm Calm - N/A   Mostly Cloudy
11:53 AM 35.1 °F - 19.9 °F 54% 29.86 in 10.0 mi Calm Calm - N/A   Mostly Cloudy
12:53 PM 35.1 °F - 19.0 °F 52% 29.86 in 10.0 mi Calm Calm - N/A   Mostly Cloudy
1:53 PM 32.0 °F - 24.1 °F 73% 29.87 in 10.0 mi Calm Calm - N/A   Mostly Cloudy
2:53 PM 30.9 °F - 21.9 °F 69% 29.89 in 10.0 mi Calm Calm - N/A   Overcast
3:53 PM 28.0 °F - 21.9 °F 78% 29.90 in 10.0 mi Calm Calm - N/A   Mostly Cloudy
4:53 PM 30.9 °F - 21.0 °F 67% 29.90 in 10.0 mi Calm Calm - N/A   Overcast
5:53 PM 32.0 °F - 21.9 °F 66% 29.89 in 10.0 mi Calm Calm - N/A   Overcast
6:53 PM 30.9 °F - 23.0 °F 72% 29.90 in 10.0 mi Calm Calm - N/A   Overcast
7:53 PM 30.9 °F - 24.1 °F 76% 29.90 in 10.0 mi Calm Calm - N/A   Overcast
8:53 PM 30.9 °F - 24.1 °F 76% 29.91 in 10.0 mi Calm Calm - N/A   Overcast
9:53 PM 32.0 °F - 24.1 °F 73% 29.92 in 10.0 mi Calm Calm - N/A   Overcast
10:53 PM 32.0 °F - 25.0 °F 75% 29.93 in 10.0 mi Calm Calm - N/A   Overcast
11:53 PM 32.0 °F - 24.1 °F 73% 29.91 in 10.0 mi Calm Calm - N/A   Overcast